Location: Arrodets-la-Barthe
(43.0306°N, 0.2829°E)
Time: 00:50:43
(UTC+00:00)

NOAA 19 - Pass Details

Date: 04 April 2023
Orbit: 840 x 859 km, 99.1° (Epoch: 29 May)

Event Time Altitude Azimuth Distance (km) Brightness Sun altitude
Exits shadow 19:30:31 - 156° (SSE) 3,008 7.7 -11.8°
Reaches altitude 10° 19:31:55 10° 154° (SSE) 2,462 7.2 -12.1°
Maximum altitude 19:37:20 69° 72° (ENE) 901 5.2 -13.0°
Drops below altitude 10° 19:42:46 10° 350° (N) 2,469 8.1 -13.9°
Sets 19:45:08 0° 349° (NNW) 3,407 8.9 -14.3°
